GW2301 Weather Reports


Display with metric or nautical units.
time (UTC)temp
F
wind
direction
speed
MPH
gust
MPH
rain 1hr
in
rain 24hr
in
rain mn
in
humidity
%
barometer
mb
20260508141617 63 159 2.0 7.0 0.00 0.00 0.00 46 1016.6
20260508141023 63 117 3.0 7.0 0.00 0.00 0.00 45 1016.5
20260508140538 62 292 2.0 8.0 0.00 0.00 0.00 47 1016.7
20260508140212 61 322 4.0 9.0 0.00 0.00 0.00 49 1016.8
20260508135530 60 206 3.0 8.0 0.00 0.00 0.00 49 1016.7
20260508135037 60 209 2.0 7.0 0.00 0.00 0.00 50 1016.6
20260508134641 59 188 3.0 6.0 0.00 0.00 0.00 50 1016.7
20260508134029 58 263 3.0 8.0 0.00 0.00 0.00 52 1016.8
20260508133538 58 248 3.0 8.0 0.00 0.00 0.00 51 1016.7
20260508133150 58 244 3.0 10.0 0.00 0.00 0.00 55 1016.9
20260508132521 57 229 3.0 10.0 0.00 0.00 0.00 55 1016.9
20260508132042 57 171 3.0 6.0 0.00 0.00 0.00 56 1016.7
20260508131703 56 163 2.0 5.0 0.00 0.00 0.00 58 1016.8
20260508131041 55 291 2.0 5.0 0.00 0.00 0.00 61 1016.8
20260508130532 54 202 1.0 6.0 0.00 0.00 0.00 67 1016.8
20260508130212 54 265 2.0 6.0 0.00 0.00 0.00 63 1016.7
20260508125543 54 177 2.0 5.0 0.00 0.00 0.00 66 1016.8
20260508125035 52 185 1.0 4.0 0.00 0.00 0.00 73 1017.0
20260508124649 50 219 0.0 2.0 0.00 0.00 0.00 83 1017.1
20260508124019 48 63 0.0 2.0 0.00 0.00 0.00 87 1016.9
20260508123528 46 76 0.0 2.0 0.00 0.00 0.00 90 1016.8
20260508123133 44 76 1.0 2.0 0.00 0.00 0.00 90 1016.7
20260508122532 43 73 0.0 2.0 0.00 0.00 0.00 91 1016.9
20260508122023 42 81 0.0 2.0 0.00 0.00 0.00 91 1016.7
20260508121658 41 113 0.0 1.0 0.00 0.00 0.00 91 1016.9
20260508121037 41 113 0.0 1.0 0.00 0.00 0.00 91 1017.0
20260508120535 40 113 0.0 1.0 0.00 0.00 0.00 92 1016.8
20260508120136 39 113 0.0 2.0 0.00 0.00 0.00 91 1016.9
20260508115527 39 114 0.0 2.0 0.00 0.00 0.00 92 1016.7
20260508115016 38 90 0.0 1.0 0.00 0.00 0.00 92 1016.6
20260508114704 38 93 0.0 1.0 0.00 0.00 0.00 92 1016.8
20260508114023 37 93 0.0 1.0 0.00 0.00 0.00 92 1016.7
20260508113521 37 90 0.0 1.0 0.00 0.00 0.00 92 1016.8
20260508113149 36 88 0.0 1.0 0.00 0.00 0.00 92 1016.8
20260508112523 36 88 0.0 1.0 0.00 0.00 0.00 92 1016.7
20260508112043 36 86 0.0 1.0 0.00 0.00 0.00 92 1016.7
20260508111623 35 52 0.0 1.0 0.00 0.00 0.00 92 1016.8
20260508111023 35 65 0.0 0.0 0.00 0.00 0.00 92 1016.7
20260508110522 35 65 0.0 0.0 0.00 0.00 0.00 92 1016.8
20260508110227 35 65 0.0 1.0 0.00 0.00 0.00 92 1016.7
20260508105545 35 65 0.0 1.0 0.00 0.00 0.00 92 1016.6
20260508105023 35 65 0.0 1.0 0.00 0.00 0.00 92 1016.6
20260508104634 35 64 0.0 1.0 0.00 0.00 0.00 92 1016.3
20260508104015 35 78 0.0 1.0 0.00 0.00 0.00 92 1016.3
20260508103536 35 78 0.0 2.0 0.00 0.00 0.00 92 1016.5
20260508103149 35 76 0.0 2.0 0.00 0.00 0.00 92 1016.4
20260508102530 35 106 0.0 1.0 0.00 0.00 0.00 92 1016.3
20260508102038 35 106 0.0 1.0 0.00 0.00 0.00 92 1016.2
20260508101727 35 108 0.0 1.0 0.00 0.00 0.00 92 1016.3
20260508101022 35 108 0.0 1.0 0.00 0.00 0.00 92 1016.2
20260508100516 35 108 0.0 1.0 0.00 0.00 0.00 92 1016.0
20260508100141 35 115 0.0 1.0 0.00 0.00 0.00 92 1016.2
20260508095519 35 117 0.0 1.0 0.00 0.00 0.00 92 1016.0
20260508095035 35 117 0.0 1.0 0.00 0.00 0.00 92 1016.0
20260508094706 35 128 0.0 1.0 0.00 0.00 0.00 92 1016.0
20260508094021 35 189 0.0 1.0 0.00 0.00 0.00 92 1016.0
20260508093525 35 189 0.0 1.0 0.00 0.00 0.00 92 1016.1
20260508093210 35 189 0.0 1.0 0.00 0.00 0.00 92 1016.0
20260508092526 35 189 0.0 1.0 0.00 0.00 0.00 92 1016.0
20260508092016 35 189 0.0 1.0 0.00 0.00 0.00 92 1016.1
20260508091608 35 189 0.0 1.0 0.00 0.00 0.00 92 1016.2
20260508091022 35 189 0.0 0.0 0.00 0.00 0.00 92 1016.2
20260508090523 35 189 0.0 0.0 0.00 0.00 0.00 92 1016.0
20260508090209 35 189 0.0 0.0 0.00 0.00 0.00 92 1015.9
20260508085541 35 189 0.0 0.0 0.00 0.00 0.00 92 1015.9
20260508085034 35 189 0.0 0.0 0.00 0.00 0.00 92 1015.9
20260508084648 35 189 0.0 0.0 0.00 0.00 0.00 92 1015.9
20260508084035 35 189 0.0 0.0 0.00 0.00 0.00 92 1015.8
20260508083524 35 189 0.0 0.0 0.00 0.00 0.00 92 1015.8
20260508083208 35 189 0.0 1.0 0.00 0.00 0.00 92 1015.8
20260508082528 35 189 0.0 1.0 0.00 0.00 0.00 92 1015.6
20260508082020 35 189 0.0 1.0 0.00 0.00 0.00 91 1015.7
20260508081727 36 189 0.0 1.0 0.00 0.00 0.00 92 1015.7
20260508081038 35 189 0.0 0.0 0.00 0.00 0.00 91 1015.7
20260508080542 36 189 0.0 0.0 0.00 0.00 0.00 91 1015.6
20260508080225 36 189 0.0 0.0 0.00 0.00 0.00 91 1015.6
20260508075523 36 189 0.0 0.0 0.00 0.00 0.00 91 1015.8
20260508075031 36 189 0.0 0.0 0.00 0.00 0.00 91 1015.7
20260508074710 36 189 0.0 1.0 0.00 0.00 0.00 91 1015.5
20260508074029 36 189 0.0 1.0 0.00 0.00 0.00 91 1015.7
20260508073521 36 189 0.0 1.0 0.00 0.00 0.00 91 1015.5
20260508073222 36 189 0.0 1.0 0.00 0.00 0.00 91 1015.6
20260508072523 36 189 0.0 1.0 0.00 0.00 0.00 91 1015.6
20260508072022 36 189 0.0 1.0 0.00 0.00 0.00 91 1015.5
20260508071739 36 189 0.0 0.0 0.00 0.00 0.00 91 1015.6
20260508071039 36 189 0.0 1.0 0.00 0.00 0.00 91 1015.5
20260508070535 37 189 0.0 1.0 0.00 0.00 0.00 91 1015.6
20260508070231 36 189 0.0 0.0 0.00 0.00 0.00 91 1015.7
20260508065543 37 189 0.0 0.0 0.00 0.00 0.00 91 1015.5
20260508065031 37 189 0.0 1.0 0.00 0.00 0.00 91 1015.5
20260508064649 37 189 0.0 1.0 0.00 0.00 0.00 91 1015.5
20260508064020 37 189 0.0 1.0 0.00 0.00 0.00 91 1015.7
20260508063542 37 189 0.0 0.0 0.00 0.00 0.00 91 1015.6
20260508063224 37 189 0.0 0.0 0.00 0.00 0.00 91 1015.8
20260508062543 37 189 0.0 1.0 0.00 0.00 0.00 91 1015.8
20260508062042 37 189 0.0 1.0 0.00 0.00 0.00 91 1015.9
20260508061653 37 189 0.0 1.0 0.00 0.00 0.00 91 1015.7
20260508061044 37 189 0.0 2.0 0.00 0.00 0.00 90 1015.8
20260508060518 37 189 0.0 2.0 0.00 0.00 0.00 91 1015.9
20260508060211 37 188 0.0 3.0 0.00 0.00 0.00 90 1015.8
20260508055525 37 183 1.0 3.0 0.00 0.00 0.00 90 1015.9
20260508055024 38 179 0.0 1.0 0.00 0.00 0.00 90 1016.0
20260508054706 38 193 0.0 0.0 0.00 0.00 0.00 90 1016.0
20260508054047 38 193 0.0 2.0 0.00 0.00 0.00 90 1015.8
20260508053520 38 193 0.0 2.0 0.00 0.00 0.00 90 1015.9
20260508053207 38 193 0.0 2.0 0.00 0.00 0.00 90 1015.9
20260508052548 38 193 0.0 0.0 0.00 0.00 0.00 90 1015.8
20260508052025 38 193 0.0 0.0 0.00 0.00 0.00 90 1015.9
20260508051703 38 193 0.0 0.0 0.00 0.00 0.00 90 1016.0
20260508051035 38 193 0.0 0.0 0.00 0.00 0.00 90 1015.7
20260508050539 39 193 0.0 1.0 0.00 0.00 0.00 90 1015.8
20260508050212 38 193 0.0 1.0 0.00 0.00 0.00 89 1015.8
20260508045533 39 193 0.0 1.0 0.00 0.00 0.00 89 1015.9
20260508045020 39 193 0.0 1.0 0.00 0.00 0.00 89 1015.9
20260508044625 39 193 0.0 1.0 0.00 0.00 0.00 89 1015.8
20260508044042 39 193 0.0 1.0 0.00 0.00 0.00 89 1015.8
20260508043533 39 193 0.0 2.0 0.00 0.00 0.00 89 1015.8
20260508043208 39 193 0.0 1.0 0.00 0.00 0.00 89 1015.8
20260508042522 39 193 0.0 2.0 0.00 0.00 0.00 89 1016.0
20260508042035 39 194 0.0 2.0 0.00 0.00 0.00 88 1015.9
20260508041705 40 192 0.0 2.0 0.00 0.00 0.00 88 1015.9
20260508041034 40 192 0.0 2.0 0.00 0.00 0.00 88 1015.9
20260508040531 40 198 0.0 2.0 0.00 0.00 0.00 88 1015.7
20260508040159 40 198 0.0 2.0 0.00 0.00 0.00 88 1015.8
20260508035535 40 198 0.0 2.0 0.00 0.00 0.00 87 1016.0
20260508035035 40 198 0.0 2.0 0.00 0.00 0.00 87 1015.9
20260508034644 41 198 0.0 2.0 0.00 0.00 0.00 87 1015.9
20260508034018 41 198 0.0 2.0 0.00 0.00 0.00 86 1015.8
20260508033517 41 198 0.0 2.0 0.00 0.00 0.00 86 1015.7
20260508033145 41 198 0.0 1.0 0.00 0.00 0.00 86 1015.8
20260508032535 41 198 0.0 1.0 0.00 0.00 0.00 85 1015.9
20260508032031 41 198 0.0 2.0 0.00 0.00 0.00 85 1015.9
20260508031618 41 198 0.0 2.0 0.00 0.00 0.00 85 1015.9
20260508031034 42 198 1.0 2.0 0.00 0.00 0.00 85 1016.0
20260508030534 42 198 0.0 2.0 0.00 0.00 0.00 84 1016.0
20260508030205 42 196 0.0 2.0 0.00 0.00 0.00 84 1015.9
20260508025523 42 237 0.0 2.0 0.00 0.00 0.00 83 1015.9
20260508025031 43 237 0.0 2.0 0.00 0.00 0.00 83 1015.9
20260508024628 43 237 0.0 2.0 0.00 0.00 0.00 82 1015.8
20260508024024 43 237 0.0 1.0 0.00 0.00 0.00 82 1015.7
20260508023531 44 237 0.0 0.0 0.00 0.00 0.00 81 1015.6
20260508023152 44 237 0.0 1.0 0.00 0.00 0.00 80 1015.5
20260508022534 44 237 0.0 2.0 0.00 0.00 0.00 79 1015.3
20260508022025 44 237 0.0 2.0 0.00 0.00 0.00 78 1015.4
20260508021653 45 352 0.0 0.0 0.00 0.00 0.00 78 1015.3
20260508021025 45 352 0.0 1.0 0.00 0.00 0.00 78 1015.3
20260508020542 45 352 0.0 1.0 0.00 0.00 0.00 77 1015.2
20260508020153 45 352 0.0 0.0 0.00 0.00 0.00 76 1015.1
20260508015521 46 352 0.0 1.0 0.00 0.00 0.00 76 1015.2
20260508015040 46 352 0.0 1.0 0.00 0.00 0.00 75 1014.9
20260508014647 46 352 0.0 1.0 0.00 0.00 0.00 73 1014.8
20260508014046 47 352 0.0 1.0 0.00 0.00 0.00 73 1014.7
20260508013537 47 352 0.0 1.0 0.00 0.00 0.00 71 1014.7
20260508013142 48 352 0.0 1.0 0.00 0.00 0.00 70 1014.5
20260508012536 48 352 0.0 1.0 0.00 0.00 0.00 70 1014.5
20260508012025 48 355 0.0 2.0 0.00 0.00 0.00 68 1014.3
20260508011705 49 352 0.0 2.0 0.00 0.00 0.00 66 1014.4
20260508011033 49 44 0.0 1.0 0.00 0.00 0.00 65 1014.4
20260508010542 50 44 0.0 1.0 0.00 0.00 0.00 65 1014.2
20260508010215 50 44 0.0 0.0 0.00 0.00 0.00 65 1014.1
20260508005534 51 44 0.0 0.0 0.00 0.00 0.00 65 1014.1
20260508005029 51 44 0.0 1.0 0.00 0.00 0.00 63 1014.1
20260508004710 52 44 0.0 1.0 0.00 0.00 0.00 62 1014.1
20260508004047 53 22 0.0 1.0 0.00 0.00 0.00 60 1014.2
20260508003532 53 22 0.0 2.0 0.00 0.00 0.00 60 1014.0
20260508003128 54 22 0.0 2.0 0.00 0.00 0.00 57 1014.0
20260508002534 54 22 0.0 2.0 0.00 0.00 0.00 56 1014.0
20260508002034 55 20 0.0 2.0 0.00 0.00 0.00 49 1013.7
20260508001700 55 20 0.0 2.0 0.00 0.00 0.00 48 1013.7
20260508001031 56 20 0.0 1.0 0.00 0.00 0.00 46 1013.7
20260508000528 56 20 0.0 2.0 0.00 0.00 0.00 49 1013.6
20260508000216 56 82 0.0 2.0 0.00 0.00 0.00 49 1013.6
20260507235546 57 171 0.0 2.0 0.00 0.00 0.00 46 1013.6
20260507235031 58 171 0.0 2.0 0.00 0.00 0.00 37 1013.5
20260507234657 59 70 0.0 2.0 0.00 0.00 0.00 38 1013.4
20260507234034 58 35 0.0 2.0 0.00 0.00 0.00 40 1013.4
20260507233536 59 5 1.0 5.0 0.00 0.00 0.00 39 1013.3
20260507233205 60 5 1.0 8.0 0.00 0.00 0.00 35 1013.2
20260507232546 60 186 1.0 4.0 0.00 0.00 0.00 34 1013.2
20260507232023 60 24 0.0 4.0 0.00 0.00 0.00 38 1013.1
20260507231656 60 146 2.0 4.0 0.00 0.00 0.00 33 1013.0
20260507231042 60 30 1.0 4.0 0.00 0.00 0.00 34 1013.2
20260507230533 61 86 1.0 4.0 0.00 0.00 0.00 35 1013.1
20260507230207 61 360 0.0 5.0 0.00 0.00 0.00 34 1013.3
20260507225536 61 51 1.0 7.0 0.00 0.00 0.00 37 1013.1
20260507225039 61 157 1.0 7.0 0.00 0.00 0.00 34 1013.2
20260507224653 62 5 2.0 6.0 0.00 0.00 0.00 33 1013.2
20260507224034 62 244 2.0 5.0 0.00 0.00 0.00 34 1013.3
20260507223524 62 111 2.0 5.0 0.00 0.00 0.00 35 1013.1
20260507223153 62 50 0.0 3.0 0.00 0.00 0.00 35 1013.1
20260507222523 62 69 1.0 5.0 0.00 0.00 0.00 35 1013.2
20260507222028 62 75 2.0 8.0 0.00 0.00 0.00 35 1012.9
20260507221614 63 5 2.0 8.0 0.00 0.00 0.00 35 1013.0
20260507221027 63 212 2.0 8.0 0.00 0.00 0.00 33 1013.0
20260507220539 63 213 3.0 9.0 0.00 0.00 0.00 34 1013.0
20260507220203 63 249 2.0 9.0 0.00 0.00 0.00 35 1013.1
20260507215532 63 59 3.0 6.0 0.00 0.00 0.00 36 1012.8
20260507215045 64 10 2.0 6.0 0.00 0.00 0.00 34 1012.8
20260507214648 66 188 3.0 9.0 0.00 0.00 0.00 33 1012.8
20260507214044 65 261 2.0 11.0 0.00 0.00 0.00 34 1012.6
20260507213523 65 295 5.0 11.0 0.00 0.00 0.00 33 1012.8
20260507213142 66 305 3.0 9.0 0.00 0.00 0.00 33 1012.7
20260507212542 65 237 2.0 6.0 0.00 0.00 0.00 35 1012.7
20260507212026 64 76 1.0 5.0 0.00 0.00 0.00 35 1012.4
20260507211636 65 350 2.0 7.0 0.00 0.00 0.00 36 1012.6
20260507211038 65 220 1.0 7.0 0.00 0.00 0.00 37 1012.5
20260507210522 64 36 1.0 8.0 0.00 0.00 0.00 37 1012.6
20260507210148 66 273 3.0 8.0 0.00 0.00 0.00 36 1012.4
20260507205518 65 28 1.0 5.0 0.00 0.00 0.00 37 1012.3
20260507205037 65 136 1.0 10.0 0.00 0.00 0.00 38 1012.3
20260507204656 65 30 1.0 5.0 0.00 0.00 0.00 38 1012.2
20260507204020 65 109 1.0 8.0 0.00 0.00 0.00 38 1012.4
20260507203536 64 62 4.0 8.0 0.00 0.00 0.00 38 1012.3
20260507203151 65 67 1.0 4.0 0.00 0.00 0.00 37 1012.4
20260507202547 66 331 0.0 5.0 0.00 0.00 0.00 36 1012.2
20260507202030 65 233 1.0 11.0 0.00 0.00 0.00 39 1012.1
20260507201653 66 268 4.0 11.0 0.00 0.00 0.00 36 1012.2
20260507201021 67 231 4.0 11.0 0.00 0.00 0.00 34 1012.4
20260507200521 68 190 5.0 11.0 0.00 0.00 0.00 34 1012.3
20260507200152 67 22 4.0 10.0 0.00 0.00 0.00 33 1012.3
20260507195522 67 58 2.0 11.0 0.00 0.00 0.00 33 1012.4
20260507195020 67 257 5.0 16.0 0.00 0.00 0.00 34 1012.4
20260507194647 67 238 7.0 16.0 0.00 0.00 0.00 32 1012.5
20260507194039 68 80 3.0 12.0 0.00 0.00 0.00 35 1012.5
20260507193520 67 232 3.0 12.0 0.00 0.00 0.00 31 1012.3
20260507193153 67 182 3.0 8.0 0.00 0.00 0.00 36 1012.5
20260507192537 64 82 1.0 8.0 0.00 0.00 0.00 42 1012.5
20260507192032 64 45 3.0 8.0 0.00 0.00 0.00 40 1012.6
20260507191610 66 34 2.0 9.0 0.00 0.00 0.00 37 1012.8
20260507191016 65 114 2.0 11.0 0.00 0.00 0.00 40 1012.8
20260507190521 63 57 5.0 11.0 0.00 0.00 0.00 41 1012.5
20260507190153 65 79 1.0 8.0 0.00 0.00 0.00 37 1012.9
20260507185542 67 207 5.0 9.0 0.00 0.00 0.00 35 1013.0
20260507185047 65 277 4.0 9.0 0.00 0.00 0.00 40 1013.2
20260507184642 64 229 3.0 12.0 0.00 0.00 0.00 41 1013.0
20260507184030 63 275 1.0 12.0 0.00 0.00 0.00 41 1013.1
20260507183521 64 236 4.0 7.0 0.00 0.00 0.00 39 1013.3
20260507183139 65 175 4.0 8.0 0.00 0.00 0.00 39 1013.1
20260507182521 66 245 1.0 9.0 0.00 0.00 0.00 40 1013.2
20260507182024 67 251 4.0 10.0 0.00 0.00 0.00 39 1013.4
20260507181600 65 267 4.0 9.0 0.00 0.00 0.00 41 1013.3
20260507181023 65 142 2.0 5.0 0.00 0.00 0.00 41 1013.4
20260507180517 64 262 1.0 6.0 0.00 0.00 0.00 41 1013.3
20260507180156 65 277 3.0 10.0 0.00 0.00 0.00 41 1013.3
20260507175543 65 46 3.0 10.0 0.00 0.00 0.00 38 1013.3
20260507175026 64 176 2.0 10.0 0.00 0.00 0.00 42 1013.5
20260507174635 64 46 2.0 10.0 0.00 0.00 0.00 40 1013.5
20260507174020 64 194 2.0 10.0 0.00 0.00 0.00 40 1013.5
20260507173520 66 224 3.0 11.0 0.00 0.00 0.00 37 1013.7
20260507173143 66 181 4.0 10.0 0.00 0.00 0.00 36 1013.6
20260507172531 66 261 4.0 9.0 0.00 0.00 0.00 39 1013.6
20260507172037 64 186 2.0 9.0 0.00 0.00 0.00 41 1013.7
20260507171632 66 308 2.0 7.0 0.00 0.00 0.00 40 1013.7
20260507171029 63 172 1.0 10.0 0.00 0.00 0.00 43 1013.6
20260507170531 65 188 1.0 10.0 0.00 0.00 0.00 44 1013.8
20260507170147 65 315 1.0 9.0 0.00 0.00 0.00 41 1013.8
20260507165538 66 187 2.0 9.0 0.00 0.00 0.00 39 1014.0
20260507165031 65 178 3.0 9.0 0.00 0.00 0.00 43 1013.9
20260507164635 64 219 4.0 9.0 0.00 0.00 0.00 41 1013.9
20260507164029 63 245 6.0 10.0 0.00 0.00 0.00 43 1014.1
20260507163525 63 211 6.0 9.0 0.00 0.00 0.00 44 1014.0
20260507163108 64 232 3.0 7.0 0.00 0.00 0.00 43 1013.9
20260507162519 65 234 1.0 9.0 0.00 0.00 0.00 44 1013.9
20260507162044 64 228 4.0 11.0 0.00 0.00 0.00 44 1014.0
20260507161633 63 209 0.0 8.0 0.00 0.00 0.00 45 1014.1
20260507161040 63 242 4.0 7.0 0.00 0.00 0.00 44 1014.0
20260507160526 62 201 2.0 7.0 0.00 0.00 0.00 47 1014.2
20260507160151 62 225 4.0 7.0 0.00 0.00 0.00 47 1014.1
20260507155529 61 41 2.0 6.0 0.00 0.00 0.00 47 1014.1
20260507155020 64 176 0.0 7.0 0.00 0.00 0.00 45 1014.0
20260507154640 63 111 2.0 7.0 0.00 0.00 0.00 47 1014.1
20260507154020 62 59 1.0 6.0 0.00 0.00 0.00 48 1014.0
20260507153543 61 227 1.0 6.0 0.00 0.00 0.00 47 1014.1
20260507153148 64 240 3.0 6.0 0.00 0.00 0.00 44 1014.0
20260507152538 62 264 2.0 5.0 0.00 0.00 0.00 48 1013.9
20260507152025 60 219 3.0 5.0 0.00 0.00 0.00 53 1014.1
20260507151629 59 76 0.0 10.0 0.00 0.00 0.00 54 1014.1
20260507151015 60 67 5.0 10.0 0.00 0.00 0.00 50 1014.1
20260507150525 61 90 2.0 7.0 0.00 0.00 0.00 47 1014.0
20260507150109 61 210 2.0 9.0 0.00 0.00 0.00 49 1014.0
20260507145521 62 220 2.0 9.0 0.00 0.00 0.00 47 1014.2
20260507145037 61 138 2.0 5.0 0.00 0.00 0.00 48 1014.3
20260507144646 60 279 0.0 5.0 0.00 0.00 0.00 52 1014.3
20260507144030 59 69 3.0 5.0 0.00 0.00 0.00 50 1014.2
20260507143530 61 196 1.0 4.0 0.00 0.00 0.00 51 1014.1
20260507143130 59 204 1.0 4.0 0.00 0.00 0.00 55 1014.0
20260507142520 61 137 1.0 7.0 0.00 0.00 0.00 50 1014.0
20260507142038 59 196 2.0 7.0 0.00 0.00 0.00 56 1014.2